• In Hungary
  • List of Countries
  • For 7 days
  • Water Temperature
  • Satellite Maps
  • Weather Map
  • News
  • Weather Widgets
  • user-avatar
    Login

    Hourly Weather Sulejówek

    Today, 21 September, Friday

    Time Temperature Precipitation Wind Pressure Humidity
    00:00 +19°C° 0 mm 2 mps 753 mmHg 62%
    01:00 +19°C° 0 mm 2 mps 753 mmHg 63%
    02:00 +19°C° 0 mm 2 mps 753 mmHg 64%
    03:00 +18°C° 0 mm 2 mps 753 mmHg 64%
    04:00 +18°C° 0 mm 2 mps 753 mmHg 64%
    05:00 +18°C° 0 mm 3 mps 753 mmHg 63%
    06:00 +19°C° 0 mm 3 mps 753 mmHg 61%
    07:00 +19°C° 0 mm 3 mps 753 mmHg 58%
    08:00 +21°C° 0 mm 3 mps 752 mmHg 54%
    09:00 +23°C° 0 mm 4 mps 752 mmHg 49%
    10:00 +26°C° 0 mm 4 mps 752 mmHg 44%
    11:00 +27°C° 0 mm 4 mps 751 mmHg 41%
    12:00 +28°C° 0 mm 5 mps 751 mmHg 38%
    13:00 +29°C° 0 mm 4 mps 750 mmHg 33%
    14:00 +29°C° 0 mm 4 mps 749 mmHg 35%
    15:00 +28°C° 0 mm 5 mps 749 mmHg 38%
    16:00 +28°C° 0 mm 5 mps 748 mmHg 40%
    17:00 +26°C° 0 mm 5 mps 748 mmHg 44%
    18:00 +25°C° 0 mm 5 mps 748 mmHg 47%
    19:00 +22°C° 0 mm 5 mps 747 mmHg 51%
    20:00 +22°C° 0 mm 5 mps 747 mmHg 53%
    21:00 +22°C° 0 mm 6 mps 746 mmHg 54%
    22:00 +22°C° 0 mm 6 mps 746 mmHg 55%
    23:00 +21°C° 0.2 mm 6 mps 746 mmHg 59%

    Tomorrow, 22 September, Saturday

    Time Temperature Precipitation Wind Pressure Humidity
    00:00 +21°C° 0.2 mm 6 mps 747 mmHg 64%
    01:00 +20°C° 0.2 mm 6 mps 747 mmHg 68%
    02:00 +19°C° 0.5 mm 6 mps 748 mmHg 72%
    03:00 +16°C° 0.5 mm 6 mps 749 mmHg 77%
    04:00 +15°C° 0.5 mm 7 mps 750 mmHg 81%
    05:00 +14°C° 0.2 mm 6 mps 750 mmHg 79%
    06:00 +14°C° 0.2 mm 5 mps 751 mmHg 76%
    07:00 +13°C° 0.2 mm 5 mps 752 mmHg 74%
    08:00 +14°C° 0 mm 5 mps 752 mmHg 68%
    09:00 +15°C° 0 mm 6 mps 753 mmHg 62%
    10:00 +15°C° 0 mm 6 mps 753 mmHg 56%
    11:00 +16°C° 0 mm 6 mps 753 mmHg 52%
    12:00 +17°C° 0 mm 6 mps 753 mmHg 49%
    13:00 +17°C° 0 mm 7 mps 753 mmHg 46%
    14:00 +17°C° 0.1 mm 6 mps 752 mmHg 46%
    15:00 +17°C° 0.1 mm 6 mps 752 mmHg 47%
    16:00 +16°C° 0.1 mm 6 mps 752 mmHg 48%
    17:00 +15°C° 0 mm 5 mps 752 mmHg 52%
    18:00 +14°C° 0 mm 4 mps 752 mmHg 56%
    19:00 +12°C° 0 mm 3 mps 753 mmHg 60%
    20:00 +12°C° 0 mm 3 mps 753 mmHg 61%
    21:00 +12°C° 0 mm 3 mps 753 mmHg 63%
    22:00 +11°C° 0 mm 3 mps 753 mmHg 64%
    23:00 +11°C° 0 mm 3 mps 753 mmHg 65%

    Day after tomorrow, 23 September, Sunday

    Time Temperature Precipitation Wind Pressure Humidity
    00:00 +11°C° 0 mm 3 mps 753 mmHg 66%
    01:00 +11°C° 0 mm 3 mps 753 mmHg 66%
    02:00 +10°C° 0 mm 3 mps 753 mmHg 68%
    03:00 +10°C° 0 mm 3 mps 752 mmHg 69%
    04:00 +10°C° 0 mm 3 mps 752 mmHg 70%
    05:00 +10°C° 0 mm 4 mps 752 mmHg 69%
    06:00 +11°C° 0 mm 4 mps 752 mmHg 68%
    07:00 +12°C° 0 mm 5 mps 752 mmHg 67%
    08:00 +13°C° 0 mm 5 mps 752 mmHg 64%
    09:00 +13°C° 0 mm 5 mps 752 mmHg 62%
    10:00 +14°C° 0 mm 5 mps 752 mmHg 59%
    11:00 +15°C° 0 mm 5 mps 752 mmHg 59%
    12:00 +15°C° 0 mm 5 mps 752 mmHg 59%
    13:00 +15°C° 0 mm 5 mps 751 mmHg 59%
    14:00 +15°C° 0 mm 5 mps 751 mmHg 58%
    15:00 +15°C° 0 mm 5 mps 751 mmHg 58%
    16:00 +15°C° 0 mm 4 mps 750 mmHg 57%
    17:00 +14°C° 0 mm 4 mps 750 mmHg 62%
    18:00 +13°C° 0 mm 3 mps 749 mmHg 67%
    19:00 +13°C° 0 mm 2 mps 749 mmHg 72%
    20:00 +13°C° 0.6 mm 2 mps 748 mmHg 76%
    21:00 +13°C° 0.6 mm 2 mps 747 mmHg 81%
    22:00 +11°C° 0.6 mm 3 mps 746 mmHg 86%
    23:00 +11°C° 4.4 mm 3 mps 744 mmHg 88%

    24 September, Monday

    Time Temperature Precipitation Wind Pressure Humidity
    00:00 +11°C° 4.4 mm 4 mps 742 mmHg 90%
    01:00 +9°C° 4.4 mm 5 mps 740 mmHg 93%
    02:00 +10°C° 2.2 mm 6 mps 739 mmHg 93%
    03:00 +10°C° 2.2 mm 6 mps 738 mmHg 93%
    04:00 +10°C° 2.2 mm 6 mps 737 mmHg 93%
    05:00 +9°C° 3 mm 8 mps 738 mmHg 91%
    06:00 +7°C° 3 mm 10 mps 740 mmHg 88%
    07:00 +5°C° 3 mm 12 mps 741 mmHg 86%
    08:00 +7°C° 0.4 mm 11 mps 742 mmHg 83%
    09:00 +8°C° 0.4 mm 10 mps 744 mmHg 79%
    10:00 +10°C° 0.4 mm 9 mps 746 mmHg 76%
    11:00 +11°C° 0.2 mm 10 mps 746 mmHg 68%
    12:00 +12°C° 0.2 mm 10 mps 747 mmHg 61%
    13:00 +13°C° 0.2 mm 11 mps 748 mmHg 54%
    14:00 +12°C° 0.2 mm 10 mps 749 mmHg 56%
    15:00 +11°C° 0.2 mm 10 mps 749 mmHg 57%
    16:00 +11°C° 0.2 mm 9 mps 750 mmHg 59%
    17:00 +10°C° 0.1 mm 9 mps 751 mmHg 62%
    18:00 +9°C° 0.1 mm 8 mps 752 mmHg 65%
    19:00 +8°C° 0.1 mm 7 mps 753 mmHg 69%
    20:00 +8°C° 0 mm 7 mps 753 mmHg 69%
    21:00 +7°C° 0 mm 6 mps 754 mmHg 70%
    22:00 +7°C° 0 mm 6 mps 755 mmHg 70%
    23:00 +5°C° 0 mm 6 mps 756 mmHg 70%

    25 September, Tuesday

    Time Temperature Precipitation Wind Pressure Humidity
    00:00 +5°C° 0 mm 6 mps 756 mmHg 71%
    01:00 +5°C° 0 mm 6 mps 757 mmHg 71%
    02:00 +5°C° 0 mm 6 mps 757 mmHg 71%
    03:00 +6°C° 0 mm 5 mps 757 mmHg 72%
    04:00 +5°C° 0 mm 5 mps 758 mmHg 73%
    05:00 +5°C° 0 mm 6 mps 758 mmHg 70%
    06:00 +5°C° 0 mm 6 mps 759 mmHg 68%
    07:00 +6°C° 0 mm 7 mps 759 mmHg 65%
    08:00 +8°C° 0 mm 7 mps 760 mmHg 59%
    09:00 +9°C° 0 mm 7 mps 760 mmHg 53%
    10:00 +11°C° 0 mm 7 mps 760 mmHg 48%
    11:00 +11°C° 0 mm 7 mps 760 mmHg 45%
    12:00 +12°C° 0 mm 7 mps 760 mmHg 42%
    13:00 +12°C° 0 mm 7 mps 760 mmHg 39%
    14:00 +12°C° 0 mm 7 mps 759 mmHg 41%
    15:00 +11°C° 0 mm 7 mps 759 mmHg 44%
    16:00 +11°C° 0 mm 6 mps 759 mmHg 46%
    17:00 +10°C° 0.1 mm 7 mps 758 mmHg 50%
    18:00 +10°C° 0.1 mm 7 mps 757 mmHg 53%
    19:00 +9°C° 0.1 mm 8 mps 757 mmHg 57%
    20:00 +9°C° 1 mm 8 mps 756 mmHg 65%
    21:00 +7°C° 1 mm 8 mps 756 mmHg 73%
    22:00 +7°C° 1 mm 9 mps 755 mmHg 81%
    23:00 +6°C° 0.4 mm 8 mps 755 mmHg 80%

    26 September, Wednesday

    Time Temperature Precipitation Wind Pressure Humidity
    00:00 +6°C° 0.4 mm 7 mps 755 mmHg 80%
    01:00 +7°C° 0.4 mm 6 mps 755 mmHg 79%
    02:00 +7°C° 0 mm 6 mps 756 mmHg 80%
    03:00 +5°C° 0 mm 6 mps 756 mmHg 80%
    04:00 +5°C° 0 mm 6 mps 756 mmHg 80%
    05:00 +5°C° 0 mm 6 mps 757 mmHg 79%
    06:00 +6°C° 0 mm 7 mps 757 mmHg 77%
    07:00 +6°C° 0 mm 7 mps 757 mmHg 75%
    08:00 +9°C° 0 mm 7 mps 758 mmHg 71%
    09:00 +10°C° 0 mm 7 mps 759 mmHg 66%
    10:00 +11°C° 0 mm 7 mps 759 mmHg 61%
    11:00 +12°C° 0 mm 7 mps 759 mmHg 59%
    12:00 +14°C° 0 mm 6 mps 760 mmHg 57%
    13:00 +15°C° 0 mm 6 mps 760 mmHg 54%
    14:00 +15°C° 0 mm 5 mps 760 mmHg 55%
    15:00 +14°C° 0 mm 4 mps 761 mmHg 56%
    16:00 +14°C° 0 mm 3 mps 761 mmHg 56%
    17:00 +13°C° 0 mm 3 mps 761 mmHg 59%
    18:00 +12°C° 0 mm 3 mps 761 mmHg 62%
    19:00 +12°C° 0 mm 2 mps 761 mmHg 65%
    20:00 +11°C° 0 mm 3 mps 761 mmHg 66%
    21:00 +10°C° 0 mm 3 mps 761 mmHg 68%
    22:00 +10°C° 0 mm 3 mps 761 mmHg 70%
    23:00 +10°C° 0 mm 3 mps 761 mmHg 72%
    Show more